Year,Month,Day,Hour,Minute,Value (Times are PST for insolation in W/m^2)
2020,01,27,00,00,0.00
2020,01,27,00,01,0.00
2020,01,27,00,02,0.00
2020,01,27,00,03,0.00
2020,01,27,00,04,0.00
2020,01,27,00,05,0.00
2020,01,27,00,06,0.00
2020,01,27,00,07,0.00
2020,01,27,00,08,0.00
2020,01,27,00,09,0.00
2020,01,27,00,10,0.00
2020,01,27,00,11,0.00
2020,01,27,00,12,0.00
2020,01,27,00,13,0.00
2020,01,27,00,14,0.00
2020,01,27,00,15,0.00
2020,01,27,00,16,0.00
2020,01,27,00,17,0.00
2020,01,27,00,18,0.00
2020,01,27,00,19,0.00
2020,01,27,00,20,0.00
2020,01,27,00,21,0.00
2020,01,27,00,22,0.00
2020,01,27,00,23,0.00
2020,01,27,00,24,0.00
2020,01,27,00,25,0.00
2020,01,27,00,26,0.00
2020,01,27,00,27,0.00
2020,01,27,00,28,0.00
2020,01,27,00,29,0.00
2020,01,27,00,30,0.00
2020,01,27,00,31,0.00
2020,01,27,00,32,0.00
2020,01,27,00,33,0.00
2020,01,27,00,34,0.00
2020,01,27,00,35,0.00
2020,01,27,00,36,0.00
2020,01,27,00,37,0.00
2020,01,27,00,38,0.00
2020,01,27,00,39,0.00
2020,01,27,00,40,0.00
2020,01,27,00,41,0.00
2020,01,27,00,42,0.00
2020,01,27,00,43,0.00
2020,01,27,00,44,0.00
2020,01,27,00,45,0.00
2020,01,27,00,46,0.00
2020,01,27,00,47,0.00
2020,01,27,00,48,0.00
2020,01,27,00,49,0.00
2020,01,27,00,50,0.00
2020,01,27,00,51,0.00
2020,01,27,00,52,0.00
2020,01,27,00,53,0.00
2020,01,27,00,54,0.00
2020,01,27,00,55,0.00
2020,01,27,00,56,0.00
2020,01,27,00,57,0.00
2020,01,27,00,58,0.00
2020,01,27,00,59,0.00
2020,01,27,01,00,0.00
2020,01,27,01,01,0.00
2020,01,27,01,02,0.00
2020,01,27,01,03,0.00
2020,01,27,01,04,0.00
2020,01,27,01,05,0.00
2020,01,27,01,06,0.00
2020,01,27,01,07,0.00
2020,01,27,01,08,0.00
2020,01,27,01,09,0.00
2020,01,27,01,10,0.00
2020,01,27,01,11,0.00
2020,01,27,01,12,0.00
2020,01,27,01,13,0.00
2020,01,27,01,14,0.00
2020,01,27,01,15,0.00
2020,01,27,01,16,0.00
2020,01,27,01,17,0.00
2020,01,27,01,18,0.00
2020,01,27,01,19,0.00
2020,01,27,01,20,0.00
2020,01,27,01,21,0.00
2020,01,27,01,22,0.00
2020,01,27,01,23,0.00
2020,01,27,01,24,0.00
2020,01,27,01,25,0.00
2020,01,27,01,26,0.00
2020,01,27,01,27,0.00
2020,01,27,01,28,0.00
2020,01,27,01,29,0.00
2020,01,27,01,30,0.00
2020,01,27,01,31,0.00
2020,01,27,01,32,0.00
2020,01,27,01,33,0.00
2020,01,27,01,34,0.00
2020,01,27,01,35,0.00
2020,01,27,01,36,0.00
2020,01,27,01,37,0.00
2020,01,27,01,38,0.00
2020,01,27,01,39,0.00
2020,01,27,01,40,0.00
2020,01,27,01,41,0.00
2020,01,27,01,42,0.00
2020,01,27,01,43,0.00
2020,01,27,01,44,0.00
2020,01,27,01,45,0.00
2020,01,27,01,46,0.00
2020,01,27,01,47,0.00
2020,01,27,01,48,0.00
2020,01,27,01,49,0.00
2020,01,27,01,50,0.00
2020,01,27,01,51,0.00
2020,01,27,01,52,0.00
2020,01,27,01,53,0.00
2020,01,27,01,54,0.00
2020,01,27,01,55,0.00
2020,01,27,01,56,0.00
2020,01,27,01,57,0.00
2020,01,27,01,58,0.00
2020,01,27,01,59,0.00
2020,01,27,02,00,0.00
2020,01,27,02,01,0.00
2020,01,27,02,02,0.00
2020,01,27,02,03,0.00
2020,01,27,02,04,0.00
2020,01,27,02,05,0.00
2020,01,27,02,06,0.00
2020,01,27,02,07,0.00
2020,01,27,02,08,0.00
2020,01,27,02,09,0.00
2020,01,27,02,10,0.00
2020,01,27,02,11,0.00
2020,01,27,02,12,0.00
2020,01,27,02,13,0.00
2020,01,27,02,14,0.00
2020,01,27,02,15,0.00
2020,01,27,02,16,0.00
2020,01,27,02,17,0.00
2020,01,27,02,18,0.00
2020,01,27,02,19,0.00
2020,01,27,02,20,0.00
2020,01,27,02,21,0.00
2020,01,27,02,22,0.00
2020,01,27,02,23,0.00
2020,01,27,02,24,0.00
2020,01,27,02,25,0.00
2020,01,27,02,26,0.00
2020,01,27,02,27,0.00
2020,01,27,02,28,0.00
2020,01,27,02,29,0.00
2020,01,27,02,30,0.00
2020,01,27,02,31,0.00
2020,01,27,02,32,0.00
2020,01,27,02,33,0.00
2020,01,27,02,34,0.00
2020,01,27,02,35,0.00
2020,01,27,02,36,0.00
2020,01,27,02,37,0.00
2020,01,27,02,38,0.00
2020,01,27,02,39,0.00
2020,01,27,02,40,0.00
2020,01,27,02,41,0.00
2020,01,27,02,42,0.00
2020,01,27,02,43,0.00
2020,01,27,02,44,0.00
2020,01,27,02,45,0.00
2020,01,27,02,46,0.00
2020,01,27,02,47,0.00
2020,01,27,02,48,0.00
2020,01,27,02,49,0.00
2020,01,27,02,50,0.00
2020,01,27,02,51,0.00
2020,01,27,02,52,0.00
2020,01,27,02,53,0.00
2020,01,27,02,54,0.00
2020,01,27,02,55,0.00
2020,01,27,02,56,0.00
2020,01,27,02,57,0.00
2020,01,27,02,58,0.00
2020,01,27,02,59,0.00
2020,01,27,03,00,0.00
2020,01,27,03,01,0.00
2020,01,27,03,02,0.00
2020,01,27,03,03,0.00
2020,01,27,03,04,0.00
2020,01,27,03,05,0.00
2020,01,27,03,06,0.00
2020,01,27,03,07,0.00
2020,01,27,03,08,0.00
2020,01,27,03,09,0.00
2020,01,27,03,10,0.00
2020,01,27,03,11,0.00
2020,01,27,03,12,0.00
2020,01,27,03,13,0.00
2020,01,27,03,14,0.00
2020,01,27,03,15,0.00
2020,01,27,03,16,0.00
2020,01,27,03,17,0.00
2020,01,27,03,18,0.00
2020,01,27,03,19,0.00
2020,01,27,03,20,0.00
2020,01,27,03,21,0.00
2020,01,27,03,22,0.00
2020,01,27,03,23,0.00
2020,01,27,03,24,0.00
2020,01,27,03,25,0.00
2020,01,27,03,26,0.00
2020,01,27,03,27,0.00
2020,01,27,03,28,0.00
2020,01,27,03,29,0.00
2020,01,27,03,30,0.00
2020,01,27,03,31,0.00
2020,01,27,03,32,0.00
2020,01,27,03,33,0.00
2020,01,27,03,34,0.00
2020,01,27,03,35,0.00
2020,01,27,03,36,0.00
2020,01,27,03,37,0.00
2020,01,27,03,38,0.00
2020,01,27,03,39,0.00
2020,01,27,03,40,0.00
2020,01,27,03,41,0.00
2020,01,27,03,42,0.00
2020,01,27,03,43,0.00
2020,01,27,03,44,0.00
2020,01,27,03,45,0.00
2020,01,27,03,46,0.00
2020,01,27,03,47,0.00
2020,01,27,03,48,0.00
2020,01,27,03,49,0.00
2020,01,27,03,50,0.00
2020,01,27,03,51,0.00
2020,01,27,03,52,0.00
2020,01,27,03,53,0.00
2020,01,27,03,54,0.00
2020,01,27,03,55,0.00
2020,01,27,03,56,0.00
2020,01,27,03,57,0.00
2020,01,27,03,58,0.00
2020,01,27,03,59,0.00
2020,01,27,04,00,0.00
2020,01,27,04,01,0.00
2020,01,27,04,02,0.00
2020,01,27,04,03,0.00
2020,01,27,04,04,0.00
2020,01,27,04,05,0.00
2020,01,27,04,06,0.00
2020,01,27,04,07,0.00
2020,01,27,04,08,0.00
2020,01,27,04,09,0.00
2020,01,27,04,10,0.00
2020,01,27,04,11,0.00
2020,01,27,04,12,0.00
2020,01,27,04,13,0.00
2020,01,27,04,14,0.00
2020,01,27,04,15,0.00
2020,01,27,04,16,0.00
2020,01,27,04,17,0.00
2020,01,27,04,18,0.00
2020,01,27,04,19,0.00
2020,01,27,04,20,0.00
2020,01,27,04,21,0.00
2020,01,27,04,22,0.00
2020,01,27,04,23,0.00
2020,01,27,04,24,0.00
2020,01,27,04,25,0.00
2020,01,27,04,26,0.00
2020,01,27,04,27,0.00
2020,01,27,04,28,0.00
2020,01,27,04,29,0.00
2020,01,27,04,30,0.00
2020,01,27,04,31,0.00
2020,01,27,04,32,0.00
2020,01,27,04,33,0.00
2020,01,27,04,34,0.00
2020,01,27,04,35,0.00
2020,01,27,04,36,0.00
2020,01,27,04,37,0.00
2020,01,27,04,38,0.00
2020,01,27,04,39,0.00
2020,01,27,04,40,0.00
2020,01,27,04,41,0.00
2020,01,27,04,42,0.00
2020,01,27,04,43,0.00
2020,01,27,04,44,0.00
2020,01,27,04,45,0.00
2020,01,27,04,46,0.00
2020,01,27,04,47,0.00
2020,01,27,04,48,0.00
2020,01,27,04,49,0.00
2020,01,27,04,50,0.00
2020,01,27,04,51,0.00
2020,01,27,04,52,0.00
2020,01,27,04,53,0.00
2020,01,27,04,54,0.00
2020,01,27,04,55,0.00
2020,01,27,04,56,0.00
2020,01,27,04,57,0.00
2020,01,27,04,58,0.00
2020,01,27,04,59,0.00
2020,01,27,05,00,0.00
2020,01,27,05,01,0.00
2020,01,27,05,02,0.00
2020,01,27,05,03,0.00
2020,01,27,05,04,0.00
2020,01,27,05,05,0.00
2020,01,27,05,06,0.00
2020,01,27,05,07,0.00
2020,01,27,05,08,0.00
2020,01,27,05,09,0.00
2020,01,27,05,10,0.00
2020,01,27,05,11,0.00
2020,01,27,05,12,0.00
2020,01,27,05,13,0.00
2020,01,27,05,14,0.00
2020,01,27,05,15,0.00
2020,01,27,05,16,0.00
2020,01,27,05,17,0.00
2020,01,27,05,18,0.00
2020,01,27,05,19,0.00
2020,01,27,05,20,0.00
2020,01,27,05,21,0.00
2020,01,27,05,22,0.00
2020,01,27,05,23,0.00
2020,01,27,05,24,0.00
2020,01,27,05,25,0.00
2020,01,27,05,26,0.00
2020,01,27,05,27,0.00
2020,01,27,05,28,0.00
2020,01,27,05,29,0.00
2020,01,27,05,30,0.00
2020,01,27,05,31,0.00
2020,01,27,05,32,0.00
2020,01,27,05,33,0.00
2020,01,27,05,34,0.00
2020,01,27,05,35,0.00
2020,01,27,05,36,0.00
2020,01,27,05,37,0.00
2020,01,27,05,38,0.00
2020,01,27,05,39,0.00
2020,01,27,05,40,0.00
2020,01,27,05,41,0.00
2020,01,27,05,42,0.00
2020,01,27,05,43,0.00
2020,01,27,05,44,0.00
2020,01,27,05,45,0.00
2020,01,27,05,46,0.00
2020,01,27,05,47,0.00
2020,01,27,05,48,0.00
2020,01,27,05,49,0.00
2020,01,27,05,50,0.00
2020,01,27,05,51,0.00
2020,01,27,05,52,0.00
2020,01,27,05,53,0.00
2020,01,27,05,54,0.00
2020,01,27,05,55,0.00
2020,01,27,05,56,0.00
2020,01,27,05,57,0.00
2020,01,27,05,58,0.00
2020,01,27,05,59,0.00
2020,01,27,06,00,0.00
2020,01,27,06,01,0.00
2020,01,27,06,02,0.00
2020,01,27,06,03,0.00
2020,01,27,06,04,0.00
2020,01,27,06,05,0.00
2020,01,27,06,06,0.00
2020,01,27,06,07,0.00
2020,01,27,06,08,0.00
2020,01,27,06,09,0.00
2020,01,27,06,10,0.00
2020,01,27,06,11,0.00
2020,01,27,06,12,0.00
2020,01,27,06,13,0.00
2020,01,27,06,14,0.00
2020,01,27,06,15,0.00
2020,01,27,06,16,0.00
2020,01,27,06,17,0.00
2020,01,27,06,18,0.00
2020,01,27,06,19,0.00
2020,01,27,06,20,0.00
2020,01,27,06,21,0.00
2020,01,27,06,22,0.00
2020,01,27,06,23,0.00
2020,01,27,06,24,0.00
2020,01,27,06,25,0.00
2020,01,27,06,26,0.00
2020,01,27,06,27,0.00
2020,01,27,06,28,0.00
2020,01,27,06,29,0.00
2020,01,27,06,30,0.00
2020,01,27,06,31,0.00
2020,01,27,06,32,0.00
2020,01,27,06,33,0.00
2020,01,27,06,34,0.00
2020,01,27,06,35,0.00
2020,01,27,06,36,0.00
2020,01,27,06,37,0.00
2020,01,27,06,38,0.00
2020,01,27,06,39,0.00
2020,01,27,06,40,0.00
2020,01,27,06,41,0.00
2020,01,27,06,42,0.00
2020,01,27,06,43,0.00
2020,01,27,06,44,0.00
2020,01,27,06,45,0.00
2020,01,27,06,46,0.00
2020,01,27,06,47,0.00
2020,01,27,06,48,0.00
2020,01,27,06,49,0.00
2020,01,27,06,50,0.00
2020,01,27,06,51,0.00
2020,01,27,06,52,0.00
2020,01,27,06,53,0.00
2020,01,27,06,54,0.00
2020,01,27,06,55,0.00
2020,01,27,06,56,0.00
2020,01,27,06,57,0.00
2020,01,27,06,58,0.00
2020,01,27,06,59,0.00
2020,01,27,07,00,0.00
2020,01,27,07,01,0.00
2020,01,27,07,02,0.00
2020,01,27,07,03,0.00
2020,01,27,07,04,0.00
2020,01,27,07,05,0.00
2020,01,27,07,06,0.00
2020,01,27,07,07,0.00
2020,01,27,07,08,0.00
2020,01,27,07,09,0.00
2020,01,27,07,10,0.00
2020,01,27,07,11,0.00
2020,01,27,07,12,0.00
2020,01,27,07,13,0.00
2020,01,27,07,14,0.00
2020,01,27,07,15,0.00
2020,01,27,07,16,0.00
2020,01,27,07,17,0.00
2020,01,27,07,18,0.00
2020,01,27,07,19,0.00
2020,01,27,07,20,0.00
2020,01,27,07,21,0.00
2020,01,27,07,22,0.00
2020,01,27,07,23,0.00
2020,01,27,07,24,0.00
2020,01,27,07,25,0.00
2020,01,27,07,26,0.00
2020,01,27,07,27,0.00
2020,01,27,07,28,0.00
2020,01,27,07,29,0.00
2020,01,27,07,30,0.00
2020,01,27,07,31,0.00
2020,01,27,07,32,0.00
2020,01,27,07,33,0.00
2020,01,27,07,34,0.00
2020,01,27,07,35,0.00
2020,01,27,07,36,0.00
2020,01,27,07,37,0.00
2020,01,27,07,38,0.00
2020,01,27,07,39,0.00
2020,01,27,07,40,0.00
2020,01,27,07,41,0.00
2020,01,27,07,42,0.00
2020,01,27,07,43,0.00
2020,01,27,07,44,0.00
2020,01,27,07,45,0.00
2020,01,27,07,46,0.00
2020,01,27,07,47,0.00
2020,01,27,07,48,0.00
2020,01,27,07,49,5.00
2020,01,27,07,50,5.00
2020,01,27,07,51,5.00
2020,01,27,07,52,5.80
2020,01,27,07,53,7.00
2020,01,27,07,54,7.00
2020,01,27,07,55,8.40
2020,01,27,07,56,9.00
2020,01,27,07,57,9.10
2020,01,27,07,58,11.00
2020,01,27,07,59,11.30
2020,01,27,08,00,12.00
2020,01,27,08,01,12.90
2020,01,27,08,02,14.00
2020,01,27,08,03,15.30
2020,01,27,08,04,16.00
2020,01,27,08,05,16.00
2020,01,27,08,06,16.00
2020,01,27,08,07,16.00
2020,01,27,08,08,16.50
2020,01,27,08,09,18.00
2020,01,27,08,10,18.50
2020,01,27,08,11,20.20
2020,01,27,08,12,22.30
2020,01,27,08,13,24.60
2020,01,27,08,14,25.90
2020,01,27,08,15,28.00
2020,01,27,08,16,28.00
2020,01,27,08,17,28.00
2020,01,27,08,18,28.00
2020,01,27,08,19,29.00
2020,01,27,08,20,31.30
2020,01,27,08,21,34.10
2020,01,27,08,22,38.20
2020,01,27,08,23,42.00
2020,01,27,08,24,46.20
2020,01,27,08,25,47.50
2020,01,27,08,26,49.70
2020,01,27,08,27,51.00
2020,01,27,08,28,51.00
2020,01,27,08,29,51.00
2020,01,27,08,30,51.00
2020,01,27,08,31,52.70
2020,01,27,08,32,53.00
2020,01,27,08,33,54.00
2020,01,27,08,34,54.00
2020,01,27,08,35,53.70
2020,01,27,08,36,52.00
2020,01,27,08,37,51.00
2020,01,27,08,38,51.00
2020,01,27,08,39,52.60
2020,01,27,08,40,53.90
2020,01,27,08,41,58.50
2020,01,27,08,42,64.00
2020,01,27,08,43,68.00
2020,01,27,08,44,71.50
2020,01,27,08,45,75.10
2020,01,27,08,46,76.70
2020,01,27,08,47,80.00
2020,01,27,08,48,82.70
2020,01,27,08,49,86.10
2020,01,27,08,50,92.00
2020,01,27,08,51,100.90
2020,01,27,08,52,113.20
2020,01,27,08,53,117.40
2020,01,27,08,54,109.40
2020,01,27,08,55,108.30
2020,01,27,08,56,103.60
2020,01,27,08,57,97.80
2020,01,27,08,58,85.10
2020,01,27,08,59,76.20
2020,01,27,09,00,70.60
2020,01,27,09,01,65.40
2020,01,27,09,02,64.00
2020,01,27,09,03,67.50
2020,01,27,09,04,74.10
2020,01,27,09,05,82.50
2020,01,27,09,06,99.60
2020,01,27,09,07,125.60
2020,01,27,09,08,161.80
2020,01,27,09,09,211.00
2020,01,27,09,10,213.00
2020,01,27,09,11,219.40
2020,01,27,09,12,218.00
2020,01,27,09,13,223.40
2020,01,27,09,14,234.40
2020,01,27,09,15,236.80
2020,01,27,09,16,233.70
2020,01,27,09,17,226.60
2020,01,27,09,18,209.30
2020,01,27,09,19,192.00
2020,01,27,09,20,153.80
2020,01,27,09,21,146.50
2020,01,27,09,22,149.40
2020,01,27,09,23,163.40
2020,01,27,09,24,172.50
2020,01,27,09,25,185.10
2020,01,27,09,26,181.00
2020,01,27,09,27,183.70
2020,01,27,09,28,195.00
2020,01,27,09,29,200.10
2020,01,27,09,30,189.70
2020,01,27,09,31,173.90
2020,01,27,09,32,169.20
2020,01,27,09,33,153.40
2020,01,27,09,34,139.70
2020,01,27,09,35,142.00
2020,01,27,09,36,138.40
2020,01,27,09,37,134.00
2020,01,27,09,38,139.30
2020,01,27,09,39,146.80
2020,01,27,09,40,148.00
2020,01,27,09,41,155.60
2020,01,27,09,42,157.80
2020,01,27,09,43,166.60
2020,01,27,09,44,176.70
2020,01,27,09,45,181.00
2020,01,27,09,46,188.40
2020,01,27,09,47,184.10
2020,01,27,09,48,191.80
2020,01,27,09,49,201.00
2020,01,27,09,50,174.80
2020,01,27,09,51,148.90
2020,01,27,09,52,188.00
2020,01,27,09,53,242.80
2020,01,27,09,54,243.50
2020,01,27,09,55,246.00
2020,01,27,09,56,249.50
2020,01,27,09,57,256.70
2020,01,27,09,58,258.00
2020,01,27,09,59,257.30
2020,01,27,10,00,252.50
2020,01,27,10,01,251.70
2020,01,27,10,02,253.00
2020,01,27,10,03,260.00
2020,01,27,10,04,228.00
2020,01,27,10,05,227.90
2020,01,27,10,06,224.30
2020,01,27,10,07,271.10
2020,01,27,10,08,271.00
2020,01,27,10,09,269.10
2020,01,27,10,10,272.30
2020,01,27,10,11,256.00
2020,01,27,10,12,251.40
2020,01,27,10,13,261.00
2020,01,27,10,14,270.50
2020,01,27,10,15,276.50
2020,01,27,10,16,256.40
2020,01,27,10,17,241.80
2020,01,27,10,18,228.30
2020,01,27,10,19,233.70
2020,01,27,10,20,228.80
2020,01,27,10,21,237.10
2020,01,27,10,22,210.00
2020,01,27,10,23,203.70
2020,01,27,10,24,201.90
2020,01,27,10,25,196.00
2020,01,27,10,26,193.90
2020,01,27,10,27,191.60
2020,01,27,10,28,164.80
2020,01,27,10,29,170.90
2020,01,27,10,30,166.60
2020,01,27,10,31,169.50
2020,01,27,10,32,166.00
2020,01,27,10,33,167.40
2020,01,27,10,34,173.60
2020,01,27,10,35,174.00
2020,01,27,10,36,181.30
2020,01,27,10,37,187.50
2020,01,27,10,38,194.00
2020,01,27,10,39,200.60
2020,01,27,10,40,202.00
2020,01,27,10,41,214.00
2020,01,27,10,42,200.10
2020,01,27,10,43,190.80
2020,01,27,10,44,194.10
2020,01,27,10,45,184.10
2020,01,27,10,46,182.00
2020,01,27,10,47,187.00
2020,01,27,10,48,191.50
2020,01,27,10,49,194.60
2020,01,27,10,50,194.70
2020,01,27,10,51,191.60
2020,01,27,10,52,191.70
2020,01,27,10,53,197.00
2020,01,27,10,54,197.00
2020,01,27,10,55,197.00
2020,01,27,10,56,225.60
2020,01,27,10,57,236.60
2020,01,27,10,58,229.70
2020,01,27,10,59,221.90
2020,01,27,11,00,215.40
2020,01,27,11,01,232.60
2020,01,27,11,02,229.00
2020,01,27,11,03,222.50
2020,01,27,11,04,214.20
2020,01,27,11,05,196.00
2020,01,27,11,06,182.40
2020,01,27,11,07,165.60
2020,01,27,11,08,145.30
2020,01,27,11,09,140.50
2020,01,27,11,10,139.70
2020,01,27,11,11,136.90
2020,01,27,11,12,129.80
2020,01,27,11,13,133.70
2020,01,27,11,14,134.70
2020,01,27,11,15,138.20
2020,01,27,11,16,144.40
2020,01,27,11,17,159.90
2020,01,27,11,18,171.00
2020,01,27,11,19,169.10
2020,01,27,11,20,153.90
2020,01,27,11,21,147.20
2020,01,27,11,22,149.40
2020,01,27,11,23,159.50
2020,01,27,11,24,162.90
2020,01,27,11,25,163.90
2020,01,27,11,26,172.90
2020,01,27,11,27,178.10
2020,01,27,11,28,186.40
2020,01,27,11,29,189.90
2020,01,27,11,30,189.20
2020,01,27,11,31,193.60
2020,01,27,11,32,202.30
2020,01,27,11,33,212.60
2020,01,27,11,34,258.00
2020,01,27,11,35,262.30
2020,01,27,11,36,265.30
2020,01,27,11,37,243.50
2020,01,27,11,38,243.00
2020,01,27,11,39,249.70
2020,01,27,11,40,260.20
2020,01,27,11,41,268.00
2020,01,27,11,42,259.50
2020,01,27,11,43,295.50
2020,01,27,11,44,276.60
2020,01,27,11,45,280.00
2020,01,27,11,46,261.20
2020,01,27,11,47,255.80
2020,01,27,11,48,247.00
2020,01,27,11,49,237.80
2020,01,27,11,50,232.60
2020,01,27,11,51,228.80
2020,01,27,11,52,227.60
2020,01,27,12,06,257.30
2020,01,27,12,07,272.40
2020,01,27,12,08,285.00
2020,01,27,12,09,285.00
2020,01,27,12,10,281.30
2020,01,27,12,11,275.10
2020,01,27,12,12,251.80
2020,01,27,12,13,243.10
2020,01,27,12,14,257.20
2020,01,27,12,15,224.70
2020,01,27,12,16,207.30
2020,01,27,12,17,207.30
2020,01,27,12,18,202.00
2020,01,27,12,19,200.60
2020,01,27,12,20,200.60
2020,01,27,12,21,212.40
2020,01,27,12,22,218.00
2020,01,27,12,23,218.00
2020,01,27,12,24,211.30
2020,01,27,12,25,210.60
2020,01,27,12,26,207.30
2020,01,27,12,27,201.20
2020,01,27,12,28,201.90
2020,01,27,12,29,204.00
2020,01,27,12,30,204.00
2020,01,27,12,31,202.50
2020,01,27,12,32,202.00
2020,01,27,12,33,202.00
2020,01,27,12,34,202.90
2020,01,27,12,35,207.50
2020,01,27,12,36,212.20
2020,01,27,12,37,214.00
2020,01,27,12,38,213.40
2020,01,27,12,39,213.00
2020,01,27,12,40,209.80
2020,01,27,12,41,206.30
2020,01,27,12,42,205.70
2020,01,27,12,43,202.80
2020,01,27,12,44,197.50
2020,01,27,12,45,192.70
2020,01,27,12,46,187.00
2020,01,27,12,47,180.30
2020,01,27,12,48,175.00
2020,01,27,12,49,169.80
2020,01,27,12,50,166.80
2020,01,27,12,51,164.60
2020,01,27,12,52,163.00
2020,01,27,12,53,163.00
2020,01,27,12,54,164.00
2020,01,27,12,55,163.80
2020,01,27,12,56,161.00
2020,01,27,12,57,154.30
2020,01,27,12,58,144.10
2020,01,27,12,59,136.20
2020,01,27,13,00,131.20
2020,01,27,13,01,127.70
2020,01,27,13,02,126.20
2020,01,27,13,03,126.00
2020,01,27,13,04,127.70
2020,01,27,13,05,128.00
2020,01,27,13,06,128.00
2020,01,27,13,07,128.00
2020,01,27,13,08,128.00
2020,01,27,13,09,127.80
2020,01,27,13,10,126.30
2020,01,27,13,11,124.00
2020,01,27,13,12,124.20
2020,01,27,13,13,127.20
2020,01,27,13,14,132.90
2020,01,27,13,15,138.50
2020,01,27,13,16,141.00
2020,01,27,13,17,141.00
2020,01,27,13,18,140.40
2020,01,27,13,19,139.00
2020,01,27,13,20,137.90
2020,01,27,13,21,137.00
2020,01,27,13,22,134.70
2020,01,27,13,23,134.00
2020,01,27,13,24,134.10
2020,01,27,13,25,134.40
2020,01,27,13,26,130.80
2020,01,27,13,27,124.30
2020,01,27,13,28,118.00
2020,01,27,13,29,114.20
2020,01,27,13,30,110.40
2020,01,27,13,31,107.50
2020,01,27,13,32,105.30
2020,01,27,13,33,103.40
2020,01,27,13,34,97.00
2020,01,27,13,35,91.60
2020,01,27,13,36,88.00
2020,01,27,13,37,85.50
2020,01,27,13,38,83.70
2020,01,27,13,39,85.50
2020,01,27,13,40,87.60
2020,01,27,13,41,89.80
2020,01,27,13,42,90.20
2020,01,27,13,43,91.60
2020,01,27,13,44,91.90
2020,01,27,13,45,88.20
2020,01,27,13,46,86.00
2020,01,27,13,47,84.60
2020,01,27,13,48,87.00
2020,01,27,13,49,92.50
2020,01,27,13,50,98.10
2020,01,27,13,51,103.60
2020,01,27,13,52,100.10
2020,01,27,13,53,93.50
2020,01,27,13,54,90.50
2020,01,27,13,55,91.90
2020,01,27,13,56,95.70
2020,01,27,13,57,101.00
2020,01,27,13,58,103.80
2020,01,27,13,59,106.10
2020,01,27,14,00,115.00
2020,01,27,14,01,126.50
2020,01,27,14,02,138.90
2020,01,27,14,03,152.60
2020,01,27,14,04,165.10
2020,01,27,14,05,175.80
2020,01,27,14,06,182.30
2020,01,27,14,07,184.80
2020,01,27,14,08,180.00
2020,01,27,14,09,172.00
2020,01,27,14,10,164.70
2020,01,27,14,11,157.50
2020,01,27,14,12,152.80
2020,01,27,14,13,149.00
2020,01,27,14,14,143.20
2020,01,27,14,15,137.80
2020,01,27,14,16,129.90
2020,01,27,14,17,123.60
2020,01,27,14,18,115.80
2020,01,27,14,19,105.30
2020,01,27,14,20,96.70
2020,01,27,14,21,89.90
2020,01,27,14,22,86.50
2020,01,27,14,23,86.00
2020,01,27,14,24,87.90
2020,01,27,14,25,88.00
2020,01,27,14,26,88.00
2020,01,27,14,27,89.10
2020,01,27,14,28,91.00
2020,01,27,14,29,91.00
2020,01,27,14,30,90.30
2020,01,27,14,31,88.50
2020,01,27,14,32,84.60
2020,01,27,14,33,78.10
2020,01,27,14,34,68.70
2020,01,27,14,35,63.00
2020,01,27,14,36,59.30
2020,01,27,14,37,54.00
2020,01,27,14,38,53.40
2020,01,27,14,39,53.00
2020,01,27,14,40,49.80
2020,01,27,14,41,44.50
2020,01,27,14,42,38.80
2020,01,27,14,43,36.20
2020,01,27,14,44,32.00
2020,01,27,14,45,30.00
2020,01,27,14,46,27.90
2020,01,27,14,47,26.00
2020,01,27,14,48,27.40
2020,01,27,14,49,29.70
2020,01,27,14,50,32.00
2020,01,27,14,51,33.50
2020,01,27,14,52,37.50
2020,01,27,14,53,39.00
2020,01,27,14,54,39.50
2020,01,27,14,55,40.00
2020,01,27,14,56,40.00
2020,01,27,14,57,40.00
2020,01,27,14,58,40.00
2020,01,27,14,59,39.00
2020,01,27,15,00,38.60
2020,01,27,15,01,37.00
2020,01,27,15,02,36.10
2020,01,27,15,03,34.00
2020,01,27,15,04,33.00
2020,01,27,15,05,30.80
2020,01,27,15,06,28.30
2020,01,27,15,07,26.10
2020,01,27,15,08,25.90
2020,01,27,15,09,25.00
2020,01,27,15,10,24.30
2020,01,27,15,11,23.00
2020,01,27,15,12,23.00
2020,01,27,15,13,21.70
2020,01,27,15,14,21.00
2020,01,27,15,15,21.00
2020,01,27,15,16,20.80
2020,01,27,15,17,18.80
2020,01,27,15,18,18.00
2020,01,27,15,19,18.00
2020,01,27,15,20,17.00
2020,01,27,15,21,16.00
2020,01,27,15,22,14.60
2020,01,27,15,23,14.00
2020,01,27,15,24,12.20
2020,01,27,15,25,12.00
2020,01,27,15,26,11.80
2020,01,27,15,27,11.00
2020,01,27,15,28,11.00
2020,01,27,15,29,11.00
2020,01,27,15,30,11.00
2020,01,27,15,31,9.50
2020,01,27,15,32,9.00
2020,01,27,15,33,9.00
2020,01,27,15,34,9.00
2020,01,27,15,35,9.00
2020,01,27,15,36,9.00
2020,01,27,15,37,9.00
2020,01,27,15,38,9.00
2020,01,27,15,39,9.00
2020,01,27,15,40,9.00
2020,01,27,15,41,9.00
2020,01,27,15,42,9.00
2020,01,27,15,43,8.60
2020,01,27,15,44,7.00
2020,01,27,15,45,7.00
2020,01,27,15,46,7.00
2020,01,27,15,47,7.00
2020,01,27,15,48,7.00
2020,01,27,15,49,7.00
2020,01,27,15,50,7.00
2020,01,27,15,51,6.80
2020,01,27,15,52,5.00
2020,01,27,15,53,5.00
2020,01,27,15,54,5.00
2020,01,27,15,55,5.00
2020,01,27,15,56,5.00
2020,01,27,15,57,5.00
2020,01,27,15,58,5.00
2020,01,27,15,59,5.00
2020,01,27,16,00,4.50
2020,01,27,16,01,0.00
2020,01,27,16,02,0.00
2020,01,27,16,03,2.40
2020,01,27,16,04,5.00
2020,01,27,16,05,5.00
2020,01,27,16,06,5.00
2020,01,27,16,07,0.80
2020,01,27,16,08,0.00
2020,01,27,16,09,0.00
2020,01,27,16,10,0.00
2020,01,27,16,11,0.00
2020,01,27,16,12,0.00
2020,01,27,16,13,0.00
2020,01,27,16,14,0.00
2020,01,27,16,15,0.00
2020,01,27,16,16,0.00
2020,01,27,16,17,0.00
2020,01,27,16,18,0.00
2020,01,27,16,19,0.00
2020,01,27,16,20,0.00
2020,01,27,16,21,0.00
2020,01,27,16,22,0.00
2020,01,27,16,23,0.00
2020,01,27,16,24,0.00
2020,01,27,16,25,0.00
2020,01,27,16,26,0.00
2020,01,27,16,27,0.00
2020,01,27,16,28,0.00
2020,01,27,16,29,0.00
2020,01,27,16,30,0.00
2020,01,27,16,31,3.20
2020,01,27,16,32,5.00
2020,01,27,16,33,5.00
2020,01,27,16,34,4.50
2020,01,27,16,35,0.00
2020,01,27,16,36,0.00
2020,01,27,16,37,0.00
2020,01,27,16,38,0.00
2020,01,27,16,39,0.00
2020,01,27,16,40,0.00
2020,01,27,16,41,0.00
2020,01,27,16,42,0.00
2020,01,27,16,43,0.00
2020,01,27,16,44,0.00
2020,01,27,16,45,0.00
2020,01,27,16,46,0.00
2020,01,27,16,47,0.00
2020,01,27,16,48,0.00
2020,01,27,16,49,0.00
2020,01,27,16,50,0.00
2020,01,27,16,51,0.00
2020,01,27,16,52,0.00
2020,01,27,16,53,0.00
2020,01,27,16,54,0.00
2020,01,27,16,55,0.00
2020,01,27,16,56,0.00
2020,01,27,16,57,0.00
2020,01,27,16,58,0.00
2020,01,27,16,59,0.00
2020,01,27,17,00,0.00
2020,01,27,17,01,0.00
2020,01,27,17,02,0.00
2020,01,27,17,03,0.00
2020,01,27,17,04,0.00
2020,01,27,17,05,0.00
2020,01,27,17,06,0.00
2020,01,27,17,07,0.00
2020,01,27,17,08,0.00
2020,01,27,17,09,0.00
2020,01,27,17,10,0.00
2020,01,27,17,11,0.00
2020,01,27,17,12,0.00
2020,01,27,17,13,0.00
2020,01,27,17,14,0.00
2020,01,27,17,15,0.00
2020,01,27,17,16,0.00
2020,01,27,17,17,0.00
2020,01,27,17,18,0.00
2020,01,27,17,19,0.00
2020,01,27,17,20,0.00
2020,01,27,17,21,0.00
2020,01,27,17,22,0.00
2020,01,27,17,23,0.00
2020,01,27,17,24,0.00
2020,01,27,17,25,0.00
2020,01,27,17,26,0.00
2020,01,27,17,27,0.00
2020,01,27,17,28,0.00
2020,01,27,17,29,0.00
2020,01,27,17,30,0.00
2020,01,27,17,31,0.00
2020,01,27,17,32,0.00
2020,01,27,17,33,0.00
2020,01,27,17,34,0.00
2020,01,27,17,35,0.00
2020,01,27,17,36,0.00
2020,01,27,17,37,0.00
2020,01,27,17,38,0.00
2020,01,27,17,39,0.00
2020,01,27,17,40,0.00
2020,01,27,17,41,0.00
2020,01,27,17,42,0.00
2020,01,27,17,43,0.00
2020,01,27,17,44,0.00
2020,01,27,17,45,0.00
2020,01,27,17,46,0.00